Location: Asbacherhof
(48.8543°N, 10.7903°E)
Time: 23:14:07
(UTC+00:00)

Gblst 52 Del rocket - Pass Details

Date: 26 May 2022
Orbit: 805 x 1365 km, 51.5° (Epoch: 26 June)

Event Time Altitude Azimuth Distance (km) Brightness Sun altitude
Rises 01:51:28 0° 284° (WNW) 3,511 7.2 -11.7°
Reaches altitude 10° 01:54:06 10° 286° (WNW) 2,510 6.5 -11.5°
Maximum altitude 01:59:53 74° 12° (NNE) 854 4.4 -10.9°
Drops below altitude 10° 02:05:22 10° 98° (E) 2,384 7.0 -10.3°
Sets 02:07:48 0° 100° (E) 3,322 7.7 -10.0°
